Погода в Варри

Нигерия     5°31′36″N   5°45′05″E
темп.,
°C
ветер,
м/с
пор.,
м/с
влажн.,
%
обл.,
%
осадки,
мм/ч
давл.,
гПа
погр.,
м
20 июня, вс
вс2001:00+24юз259592 1.4 1013169
04:00+24ююз239680 1.3 101391
07:00+24ю239496 1.6 101495
10:00+25ююз138990 0.9 1015196
13:00+24ююз3693100 7.3 1014276
16:00+27юз4582100 3.2 1012781
19:00+24юз3893100 4.3 1013423
22:00+24ююз1596100 0.1 1015214
21 июня, пн
пн2101:00+24ююз1296100 0.6 101455
04:00+23ююз1195100 2.3 101312
07:00+24зсз0195100 2.6 101424
10:00+27зюз1280100 3.8 1015506
13:00+28зюз3477100 9.3 1013968
16:00+25зюз2589100 7.6 1012232
19:00+23зюз3795100 11.9 1013317
22:00+23ююз2598100 6.4 1015315
22 июня, вт
вт2201:00+23з2698100 7.9 1013351
04:00+23зюз1598100 0.4 1012270
07:00+23з1396100 0.4 1013111
10:00+26сз1282100 2.9 1015332
13:00+26зсз1283100 5.2 1013404
16:00+25з2589100 1.9 1012268
19:00+24зюз2793100 2.4 1012277
22:00+23юз269533 0.4 1014204
23 июня, ср
ср2301:00+23ююз2896100 0.4 1013297
04:00+23юз1495100 0.2 1012156
07:00+23с0094100 0.4 101317
10:00+24ююз129279 2.3 1014124
13:00+27ююз238092 6.0 1013656
16:00+24юз2593100 5.1 1011208
19:00+23зюз269592 5.8 1012207
22:00+23ююв1295100 0.1 101484
24 июня, чт
чт2401:00+23ююз2496100 0.7 1013127
04:00+23юз119598 0.0 101243
07:00+23ююв1195100 0.0 101316
10:00+26вюв118383 1.0 1015463
13:00+30юв116755 2.4 10131007
16:00+29юз227255 4.3 1011878
19:00+25юз24905 7.9 1012107
22:00+24юз23945 0.0 101489